STARLINK-32506 (62167 NORAD) Tracking and Keplerian Element Data

This shows tracking and keplerian element data for the satellite.

Feedback or suggestion? Click here.




ElementValue
Catalog62167
NameSTARLINK-32506
Epoch Orbit593
Epoch Day34.83335648
Epoch Year2025
RAAN90.5139
Inclination69.9993
Eccentricity0.0003051
Argument of Perigee274.2639
Mean Anonmoly325.3823
Mean Motion15.16041781
Decay Rate-0.01414195
L11 62167U 24225E 25034.83335648 -.01414195 00000+0 -79910-1 0 9994
L22 62167 69.9993 90.5139 0003051 274.2639 325.3823 15.16041781 5935



Live tracking and technical data element details for STARLINK-32506 (NORAD 62167). STARLINK-32506 can be tracked NOW for your location showing map with azimuth and elevation plus other details from your city location.







IsCatalogInMostPopularTable: catalog: 62167, numindb: 59
Update: records affected: 1



GetName: 62167 STARLINK-32506

Hit Count: updated at: Mon, 19 May 2025 01:48:44 GMT